Location: Ay?beleni
(36.6500°N, 30.3000°E)
Time: 03:44:41
(UTC+00:00)

ARGOS - Pass Details

Date: 16 October 2021
Orbit: 819 x 835 km, 98.4° (Epoch: 08 December)

Event Time Altitude Azimuth Distance (km) Brightness Sun altitude
Rises 15:44:57 0° 141° (SE) 3,348 6.0 -5.6°
Reaches altitude 10° 15:47:28 10° 132° (SE) 2,421 5.2 -6.1°
Maximum altitude 15:52:15 34° 69° (ENE) 1,338 3.8 -7.0°
Drops below altitude 10° 15:57:04 10° 6° (N) 2,443 5.5 -8.0°
Sets 15:59:37 0° 358° (N) 3,383 6.3 -8.5°
